Philadelphia, PA

8:05 AM EST on November 13, 2019 (GMT -0500)
Philadelphia International

Weather History for KPHL - May, 2019

Change the Weather History Date:

Sunday, May 26, 2019

  Actual Average Record
Temperature  
Mean Temperature 76 °F 67 °F  
Max Temperature 88 °F 77 °F 96 °F (1880)
Min Temperature 63 °F 57 °F 43 °F (1961)
Degree Days  
Heating Degree Days 0 2  
Month to date heating degree days 74 103  
Since 1 July heating degree days 4359 4593  
Cooling Degree Days 11 4  
Month to date cooling degree days 71 55  
Year to date cooling degree days 95 68  
Growing Degree Days 26 (Base 50)    
Moisture  
Dew Point 63 °F    
Average Humidity 71    
Maximum Humidity 100    
Minimum Humidity 42    
Precipitation  
Precipitation 0.12 in 0.13 in 1.70 in (2003)
Month to date precipitation 4.58 3.09  
Year to date precipitation 18.64 16.12  
Snow  
Snow 0.00 in 0.00 in 0.00 in ()
Month to date snowfall 0.0 0.0  
Since 1 July snowfall 17.1 22.4  
Snow Depth 0.00 in    
Sea Level Pressure  
Sea Level Pressure 29.96 in    
Wind  
Wind Speed 8 mph (WSW)    
Max Wind Speed 18 mph    
Max Gust Speed 22 mph    
Visibility 10 miles    
Events Rain    
T = Trace of Precipitation, MM = Missing Value Source: NWS Daily Summary

Daily Weather History Graph

Daily Weather History Graph

Search for Another Location

Airport or City:

Astronomy

May. 26, 2019 Rise Set
Actual Time 5:37 AM EDT 8:18 PM EDT
Civil Twilight 5:06 AM EDT 8:50 PM EDT
Nautical Twilight 4:26 AM EDT 9:29 PM EDT
Astronomical Twilight 3:42 AM EDT 10:14 PM EDT
Moon 1:50 AM EDT (5/26) 12:32 PM EDT (5/26)
Length of Visible Light 15h 43m
Length of Day
14h 40m
Waning Gibbous, 50% of the Moon is Illuminated
May 26
Waning Gibbous
May 26
Last Quarter
Jun 3
New
Jun 10
First Quarter
Jun 17
Full

Hourly Weather History & Observations

Time (EDT) Temp. Heat Index Dew Point Humidity Pressure Visibility Wind Dir Wind Speed Gust Speed Precip Events Conditions
12:54 AM 64.9 °F - 59.0 °F 81% 30.07 in 10.0 mi SW 4.6 mph - 0.00 in Rain Light Rain
1:06 AM 64.0 °F - 59.0 °F 84% 30.05 in 6.0 mi South 9.2 mph - 0.07 in Rain Heavy Rain
1:54 AM 63.0 °F - 61.0 °F 93% 30.00 in 10.0 mi South 5.8 mph - 0.14 in   Overcast
2:54 AM 64.0 °F - 61.0 °F 90% 29.98 in 10.0 mi SSW 6.9 mph - N/A   Mostly Cloudy
3:25 AM 64.0 °F - 62.1 °F 93% 29.97 in 10.0 mi WSW 6.9 mph - N/A   Scattered Clouds
3:44 AM 63.0 °F - 62.1 °F 97% 29.98 in 10.0 mi WSW 5.8 mph - N/A   Mostly Cloudy
3:54 AM 63.0 °F - 62.1 °F 97% 29.98 in 10.0 mi West 5.8 mph - N/A   Mostly Cloudy
4:54 AM 64.0 °F - 62.1 °F 93% 29.98 in 10.0 mi WSW 5.8 mph - N/A   Overcast
5:54 AM 64.9 °F - 63.0 °F 93% 29.99 in 10.0 mi WSW 4.6 mph - N/A   Overcast
6:10 AM 64.9 °F - 63.0 °F 93% 30.00 in 10.0 mi WSW 5.8 mph - N/A   Overcast
6:54 AM 66.0 °F - 64.0 °F 93% 30.00 in 10.0 mi WSW 4.6 mph - N/A   Overcast
7:14 AM 66.9 °F - 64.0 °F 90% 30.00 in 10.0 mi WSW 4.6 mph - N/A   Overcast
7:54 AM 68.0 °F - 64.9 °F 90% 29.99 in 9.0 mi SW 8.1 mph - N/A   Overcast
8:31 AM 69.1 °F - 64.9 °F 87% 30.00 in 9.0 mi West 8.1 mph - N/A   Mostly Cloudy
8:54 AM 71.1 °F - 66.0 °F 84% 30.00 in 10.0 mi West 8.1 mph - N/A   Scattered Clouds
9:54 AM 73.9 °F - 66.0 °F 76% 29.99 in 10.0 mi SW 9.2 mph - N/A   Scattered Clouds
10:54 AM 79.0 °F - 66.9 °F 66% 29.99 in 10.0 mi West 8.1 mph - N/A   Scattered Clouds
11:54 AM 82.9 °F 83.3 °F 61.0 °F 47% 29.98 in 10.0 mi West 9.2 mph - N/A   Mostly Cloudy
12:54 PM 84.0 °F 84.4 °F 61.0 °F 46% 29.96 in 10.0 mi SSW 6.9 mph - N/A   Scattered Clouds
1:54 PM 86.0 °F 85.7 °F 60.1 °F 41% 29.93 in 10.0 mi SSW 8.1 mph - N/A   Mostly Cloudy
2:54 PM 86.0 °F 86.8 °F 63.0 °F 46% 29.92 in 10.0 mi WSW 15.0 mph - N/A   Mostly Cloudy
3:54 PM 86.0 °F 87.3 °F 64.0 °F 48% 29.90 in 10.0 mi SW 9.2 mph - N/A   Mostly Cloudy
4:54 PM 86.0 °F 87.6 °F 64.9 °F 49% 29.88 in 10.0 mi WSW 12.7 mph - N/A   Mostly Cloudy
5:54 PM 82.0 °F 84.1 °F 66.0 °F 58% 29.90 in 10.0 mi North 8.1 mph - N/A   Mostly Cloudy
6:54 PM 79.0 °F - 69.1 °F 72% 29.90 in 10.0 mi NW 8.1 mph - 0.01 in   Mostly Cloudy
7:54 PM 77.0 °F - 66.9 °F 71% 29.90 in 10.0 mi WNW 5.8 mph - N/A   Mostly Cloudy
8:54 PM 77.0 °F - 66.0 °F 69% 29.90 in 10.0 mi NW 8.1 mph - N/A   Mostly Cloudy
9:54 PM 77.0 °F - 64.9 °F 66% 29.92 in 10.0 mi WNW 8.1 mph - N/A   Mostly Cloudy
10:54 PM 75.0 °F - 63.0 °F 66% 29.92 in 10.0 mi NNW 10.4 mph 21.9 mph N/A   Mostly Cloudy
11:54 PM 73.9 °F - 61.0 °F 64% 29.92 in 10.0 mi WNW 3.5 mph - N/A   Mostly Cloudy